Wind_Speed
14 14 14 14 15 14 14 14 14 14 13 12 11 11 11 10 10 10 10 9 8 8 8 8 7 8 8 9 10 10 11 12 12 12 12 12 11 11 10 10 9 9 9 9 9 9 8 8 8
14 14 14 14 15 13 13 14 14 14 13 12 11 11 10 9 9 9 9 9 8 7 7 6 6 7 7 8 9 10 10 11 11 11 11 11 10 10 9 9 9 9 8 8 8 9 9 8 8
13 13 13 14 13 13 13 13 13 13 12 12 11 11 10 9 9 8 8 8 7 6 6 5 5 6 6 7 8 9 10 10 11 10 10 10 10 9 9 9 8 8 8 8 8 8 8 8 8
13 13 14 13 12 12 12 12 12 12 12 11 11 11 10 9 8 7 7 7 6 5 5 4 4 5 6 6 7 8 9 9 10 10 10 9 9 9 9 8 8 8 8 8 7 7 8 7 7
12 14 13 12 11 10 11 11 12 13 12 11 10 10 10 9 8 7 6 6 5 4 4 3 3 3 4 5 6 7 8 8 9 9 9 9 9 8 8 8 7 7 7 7 7 7 7 6 7
12 13 12 10 11 10 11 12 13 14 13 12 11 10 9 9 8 7 5 5 4 3 3 2 2 2 3 4 5 6 7 7 8 8 8 8 8 7 7 7 7 7 6 6 6 6 6 6 6
11 12 11 10 10 10 10 11 12 12 12 12 11 10 10 9 8 7 6 4 4 3 2 1 1 1 2 3 4 5 6 6 7 7 7 7 7 6 6 7 6 6 6 5 6 6 6 6 6
10 11 9 10 10 10 9 10 11 11 12 11 10 10 10 10 8 7 6 5 4 3 2 1 0 1 2 2 3 4 5 5 5 5 5 6 6 5 6 6 6 6 5 5 5 5 5 6 6
9 9 7 8 9 9 9 9 10 10 11 11 11 10 9 9 9 8 6 5 4 2 2 1 0 1 2 2 2 3 4 4 4 4 4 5 5 4 4 5 5 5 5 5 5 5 5 5 5
7 7 6 6 7 7 7 8 9 9 10 11 11 11 9 9 9 8 7 6 4 3 2 1 0 1 2 2 3 3 3 4 4 4 4 4 4 4 4 4 4 4 4 4 4 5 5 4 4
5 5 5 5 6 6 7 7 8 9 10 10 11 10 9 9 8 8 7 6 5 4 2 1 0 1 1 2 2 3 3 3 4 4 4 3 4 4 4 3 3 3 3 3 4 4 4 4 3
4 3 3 4 5 5 6 7 7 8 8 8 8 9 8 8 8 8 7 6 5 4 3 2 1 0 1 2 3 3 4 4 4 4 4 4 4 4 4 3 3 2 2 3 4 4 4 3 3
3 1 1 3 3 3 4 5 5 6 6 6 7 7 7 7 8 7 7 6 5 4 3 2 2 1 1 2 3 3 3 3 4 4 4 4 4 4 4 5 4 3 2 3 4 4 4 3 3
3 2 1 2 2 2 3 4 4 4 4 5 6 7 7 7 7 7 7 6 6 4 3 2 2 2 2 2 2 2 4 4 3 4 4 5 5 5 5 5 5 4 3 3 4 3 3 3 3
5 3 3 2 2 1 2 2 3 3 3 4 5 6 6 7 7 7 7 6 6 5 4 3 3 3 3 3 2 3 4 4 5 5 5 6 6 6 6 6 6 6 5 4 4 5 4 4 3
6 5 5 4 3 1 0 0 1 1 3 4 4 5 5 6 6 6 7 6 6 5 5 5 5 4 4 4 4 4 5 5 5 6 7 8 8 8 8 8 7 7 6 6 5 6 6 6 5
8 7 7 6 4 3 2 2 2 1 2 3 4 4 5 6 6 6 6 5 6 6 5 5 6 5 5 5 5 4 5 5 6 7 9 9 9 9 9 8 8 8 8 7 7 7 7 7 7
11 10 9 8 6 4 4 3 3 3 2 3 4 5 6 6 7 7 6 6 6 6 6 6 6 6 6 6 6 5 6 6 7 7 8 10 11 10 10 10 10 10 10 9 8 8 8 8 8
13 12 11 10 8 6 5 5 5 4 4 4 5 5 6 7 7 7 7 7 7 7 8 7 7 8 8 7 7 7 7 7 7 8 8 9 10 11 11 11 11 11 11 11 10 9 9 9 9
15 14 13 12 10 8 7 6 7 6 5 5 6 7 7 7 7 7 7 8 8 8 9 9 9 9 9 9 8 8 9 9 9 9 10 10 10 11 11 12 11 11 12 12 11 11 11 11 11
17 16 15 14 11 10 8 8 8 7 6 7 7 8 8 8 9 9 9 10 10 10 11 11 11 10 10 10 11 11 10 10 10 10 10 10 11 12 12 12 12 12 12 12 13 13 12 12 12
19 18 17 16 14 13 10 9 10 8 8 8 8 8 9 9 9 10 10 11 11 11 12 12 11 11 11 11 13 13 12 11 11 11 11 10 11 12 11 12 13 13 12 12 14 14 14 14 14
22 20 19 18 16 15 13 11 11 10 9 10 10 9 9 9 10 11 11 11 12 12 12 12 12 11 12 13 14 14 14 13 12 12 12 12 12 13 13 13 13 13 13 13 14 15 16 15 15
23 21 20 19 18 18 15 13 11 11 10 10 10 10 10 10 10 11 11 11 12 12 13 13 12 12 14 14 14 13 13 14 14 13 13 12 12 13 14 14 14 14 14 14 15 15 16 17 17
24 22 21 20 20 18 17 14 13 13 12 11 11 11 12 11 11 11 11 11 12 13 14 13 12 13 13 14 14 14 14 14 14 14 13 13 13 13 13 14 14 15 15 15 16 17 18 18 18
23 23 22 19 17 18 18 16 15 14 13 13 12 12 12 12 12 12 11 11 12 13 14 14 12 12 13 13 13 14 14 15 15 14 14 12 12 12 13 13 14 14 15 16 17 17 18 19 19
25 24 23 21 20 18 19 18 16 15 14 14 14 13 13 14 14 13 13 13 13 14 14 14 13 13 13 14 14 15 15 15 14 14 13 12 11 12 12 12 13 14 15 16 17 18 19 19 20
27 26 25 23 21 19 19 18 16 16 15 15 14 14 14 14 14 14 14 14 14 14 14 14 14 14 14 14 14 15 15 14 13 13 12 12 11 12 12 13 14 14 15 16 17 18 19 19 20
28 27 26 24 24 20 16 17 16 16 15 15 15 15 14 14 14 14 14 14 14 14 14 14 14 14 15 15 15 14 14 14 13 13 13 12 12 13 13 13 13 14 15 16 17 19 20 20 20
29 28 26 25 24 21 17 17 17 16 15 15 15 15 14 15 14 14 14 14 14 14 13 13 14 14 15 15 15 15 14 14 14 13 13 12 11 12 13 13 13 14 15 16 17 19 20 21 20
Wind_Direction
83 80 80 81 82 84 87 85 83 81 81 81 84 86 89 92 95 97 96 98 98 102 104 108 109 109 109 108 107 105 104 103 101 99 98 96 93 93 94 95 95 95 96 98 98 98 98 99 102
83 82 81 81 84 86 86 85 82 78 77 78 82 85 86 91 95 98 98 98 96 100 104 108 114 117 116 115 114 111 109 106 103 100 100 99 96 95 96 96 97 98 99 99 101 100 101 103 107
84 82 79 79 84 84 83 81 78 77 75 78 82 84 85 88 93 96 100 101 100 101 105 109 116 120 121 121 122 119 115 110 107 105 103 101 98 97 98 98 97 98 98 100 104 104 102 105 108
84 81 76 79 81 81 79 79 78 73 71 75 80 81 82 82 87 93 99 101 105 106 105 111 118 121 123 126 128 127 121 116 112 109 107 104 100 98 98 99 99 100 101 101 103 106 105 106 108
84 81 79 81 78 80 81 79 75 71 69 70 76 78 79 79 81 88 94 98 101 102 106 113 121 124 129 133 135 133 127 123 118 115 113 109 104 101 100 100 102 103 105 106 107 109 109 109 110
86 81 83 81 78 77 80 76 72 71 68 67 70 74 74 76 76 79 85 94 96 94 99 120 132 130 137 141 141 141 136 130 125 121 120 117 111 108 104 103 105 108 107 107 111 113 114 112 112
89 88 86 82 76 74 74 71 66 67 65 64 66 67 69 72 73 73 76 86 91 89 82 107 156 155 151 148 148 149 146 139 133 129 125 124 119 115 109 108 110 111 112 112 110 116 120 116 113
92 88 84 79 74 72 69 69 64 62 62 62 62 62 64 65 65 67 69 70 77 88 82 74 192 182 171 159 155 156 157 152 146 140 132 129 128 121 116 115 117 118 117 118 117 116 118 115 112
95 91 90 84 79 72 69 71 64 59 60 59 58 58 61 60 62 63 63 60 64 78 92 95 145 198 194 188 184 177 173 169 163 154 146 141 140 134 128 125 125 122 117 118 120 119 118 116 114
101 105 95 85 85 78 73 71 64 60 58 54 54 56 57 58 59 59 58 56 54 61 82 100 69 212 223 224 218 207 199 186 177 171 165 162 159 154 145 139 134 129 123 124 125 129 127 124 121
109 110 99 92 88 84 76 70 65 60 56 51 49 51 53 54 55 55 53 52 51 53 54 33 279 230 231 227 236 239 227 213 202 196 190 183 179 174 167 153 149 141 139 142 144 149 144 137 132
127 107 91 98 94 87 81 74 70 63 54 50 49 47 47 47 50 49 45 46 50 48 43 37 32 322 263 253 261 263 244 231 223 217 211 202 194 191 190 183 172 161 163 168 167 169 166 161 158
172 169 110 120 104 90 83 75 71 61 55 49 49 45 41 39 41 41 39 38 38 36 33 31 23 7 327 285 280 269 248 244 233 225 222 216 213 214 211 209 204 197 193 187 181 182 183 187 186
214 212 189 159 138 96 77 72 67 59 48 39 39 36 36 37 36 36 34 32 30 28 18 1 341 325 334 326 302 271 255 244 236 231 225 224 223 225 226 222 218 214 206 201 201 199 200 207 210
225 226 229 214 187 128 83 69 63 47 29 21 21 25 30 31 31 30 29 28 25 24 15 358 334 321 324 321 304 280 269 251 247 238 229 231 235 233 231 230 228 224 219 216 217 218 219 221 224
230 234 240 239 236 242 126 173 359 13 8 7 4 7 14 18 16 17 17 19 16 10 6 0 346 331 331 318 306 286 274 259 261 250 241 244 242 238 234 231 230 228 225 224 225 230 231 231 232
235 233 235 244 247 250 230 222 272 316 339 346 342 345 354 355 355 357 358 360 356 351 348 347 345 343 334 323 312 299 285 275 270 259 254 245 240 240 233 229 228 229 229 228 230 233 236 236 235
236 235 239 241 248 246 241 245 272 288 298 313 316 323 331 334 339 340 340 338 339 336 334 332 333 331 326 323 312 307 301 299 296 289 273 256 250 246 239 233 234 237 233 234 236 235 237 237 238
232 234 238 242 246 244 246 255 269 274 281 291 296 302 313 320 327 330 330 326 327 329 326 322 320 322 318 314 308 307 307 310 308 301 290 270 260 254 248 245 241 240 239 238 240 241 240 240 240
235 236 240 245 247 248 252 259 266 270 271 282 288 291 294 304 316 320 328 322 321 320 318 318 313 315 314 312 309 304 305 307 306 296 292 277 265 257 254 251 246 246 245 242 242 243 244 245 243
235 237 240 245 250 252 257 266 268 266 269 277 285 288 285 290 297 306 317 316 317 314 314 313 310 309 309 309 306 302 301 303 300 297 290 279 267 263 258 250 247 249 248 243 243 245 245 247 246
234 237 241 245 248 254 254 256 268 268 272 279 283 282 283 287 288 294 304 305 308 311 312 310 309 309 309 308 304 304 300 298 295 292 289 280 273 262 258 252 249 250 252 248 245 245 246 248 249
233 237 241 245 248 253 257 255 262 270 271 276 280 280 279 281 286 293 297 298 301 306 309 305 305 306 309 307 305 305 303 298 296 291 287 283 275 265 259 256 254 251 252 250 248 247 248 250 250
233 236 241 245 248 251 255 258 259 263 267 267 271 276 276 278 287 294 296 295 297 299 303 303 303 301 303 303 301 301 298 299 297 291 286 282 275 267 260 259 256 254 254 254 253 254 252 252 253
232 234 238 242 246 250 256 256 253 258 262 264 269 272 273 277 283 291 294 295 294 298 302 302 300 300 302 302 299 298 299 299 298 292 286 282 277 272 267 262 255 254 256 257 256 257 256 255 256
232 233 233 237 246 252 258 257 258 260 262 264 269 271 271 276 280 287 292 296 296 295 297 300 299 296 299 302 302 302 301 300 299 296 287 283 279 275 269 265 259 259 262 261 257 258 259 258 259
231 230 231 237 239 243 256 258 259 261 261 263 266 267 268 275 278 281 287 292 295 295 296 296 295 296 298 299 300 303 301 300 296 293 288 280 277 275 272 271 268 266 266 264 260 260 259 259 260
230 231 233 234 240 244 255 261 259 258 258 259 261 262 267 272 275 279 283 287 293 295 294 293 293 293 295 298 299 300 300 299 295 289 288 284 277 276 276 275 272 271 270 268 268 266 265 265 263
231 232 234 236 239 242 252 260 256 256 254 254 258 261 263 268 274 277 279 284 290 293 292 290 289 292 292 295 297 299 297 297 295 288 284 282 278 275 277 279 277 276 276 274 272 269 267 267 265
230 232 235 237 243 244 244 256 257 254 253 254 257 258 261 267 271 275 278 284 288 291 291 292 289 291 292 293 295 297 294 294 296 293 288 284 282 282 283 283 281 281 281 280 281 278 272 270 268
Height
5910 5910 5911 5911 5912 5913 5911 5910 5909 5908 5908 5907 5906 5906 5906 5906 5907 5909 5907 5906 5906 5906 5906 5906 5906 5906 5906 5905 5905 5905 5905 5905 5905 5905 5904 5904 5904 5904 5904 5904 5904 5904 5904 5905 5905 5905 5905 5905 5905
5913 5913 5914 5914 5915 5915 5914 5912 5911 5910 5909 5908 5908 5907 5907 5907 5907 5907 5907 5907 5908 5907 5907 5907 5907 5907 5907 5907 5906 5906 5906 5906 5906 5906 5906 5906 5906 5906 5906 5906 5906 5906 5906 5906 5906 5906 5906 5906 5906
5915 5915 5917 5917 5917 5917 5916 5914 5913 5912 5911 5910 5909 5909 5909 5908 5908 5908 5908 5908 5908 5908 5908 5908 5908 5908 5908 5908 5908 5907 5907 5907 5907 5907 5907 5907 5907 5907 5907 5907 5907 5907 5907 5907 5907 5907 5907 5907 5907
5917 5918 5919 5921 5919 5918 5917 5916 5914 5913 5913 5912 5911 5910 5910 5910 5909 5909 5909 5909 5909 5909 5909 5909 5909 5909 5909 5909 5909 5908 5908 5908 5908 5908 5908 5908 5908 5908 5908 5908 5908 5908 5908 5908 5908 5908 5908 5908 5908
5919 5921 5922 5922 5921 5920 5919 5917 5916 5915 5914 5913 5912 5911 5911 5911 5910 5910 5910 5910 5910 5910 5909 5910 5910 5910 5910 5909 5909 5909 5909 5909 5909 5909 5909 5909 5909 5909 5909 5908 5909 5909 5909 5909 5909 5909 5909 5909 5909
5922 5923 5925 5924 5923 5922 5920 5919 5917 5916 5916 5915 5914 5913 5912 5912 5911 5911 5911 5911 5910 5910 5910 5910 5910 5910 5910 5910 5910 5910 5910 5909 5909 5910 5909 5909 5909 5909 5909 5909 5909 5909 5910 5910 5910 5910 5910 5910 5910
5924 5925 5925 5925 5924 5923 5922 5920 5919 5918 5917 5916 5915 5915 5913 5913 5912 5912 5911 5911 5911 5911 5911 5911 5911 5911 5910 5910 5910 5910 5910 5910 5910 5910 5910 5910 5910 5910 5910 5910 5910 5910 5910 5910 5910 5910 5910 5910 5911
5924 5927 5927 5926 5926 5925 5924 5922 5921 5920 5919 5918 5917 5916 5915 5914 5913 5913 5912 5912 5912 5912 5911 5911 5911 5911 5911 5911 5911 5911 5911 5911 5911 5911 5911 5911 5911 5911 5911 5911 5910 5910 5911 5911 5911 5911 5911 5911 5911
5925 5929 5928 5927 5927 5926 5925 5924 5923 5921 5920 5919 5918 5917 5916 5915 5914 5913 5913 5913 5912 5912 5912 5912 5911 5911 5911 5911 5911 5911 5911 5911 5911 5911 5911 5911 5911 5911 5911 5911 5911 5911 5911 5911 5911 5911 5912 5912 5912
5926 5929 5929 5928 5927 5927 5926 5925 5924 5923 5922 5920 5919 5918 5917 5916 5915 5914 5914 5913 5913 5913 5912 5912 5912 5911 5911 5911 5911 5911 5911 5911 5911 5911 5911 5911 5911 5911 5911 5911 5911 5912 5911 5911 5912 5912 5912 5912 5913
5926 5928 5928 5928 5927 5927 5926 5926 5925 5924 5923 5922 5921 5919 5918 5917 5916 5915 5915 5914 5913 5913 5913 5912 5912 5911 5911 5911 5910 5910 5910 5910 5910 5911 5911 5911 5911 5911 5911 5911 5911 5912 5912 5912 5912 5912 5912 5913 5913
5926 5927 5927 5927 5927 5927 5927 5926 5926 5925 5925 5923 5922 5920 5919 5918 5917 5916 5915 5915 5914 5913 5913 5912 5911 5911 5911 5911 5910 5910 5910 5910 5910 5910 5910 5911 5911 5911 5911 5911 5911 5912 5912 5912 5912 5912 5913 5913 5913
5926 5926 5927 5927 5927 5927 5927 5927 5926 5926 5925 5924 5922 5921 5920 5919 5918 5917 5916 5915 5914 5914 5913 5912 5911 5911 5911 5910 5910 5909 5909 5909 5909 5910 5910 5910 5910 5911 5911 5911 5911 5911 5911 5912 5912 5912 5913 5913 5913
5925 5926 5926 5927 5927 5927 5927 5927 5927 5926 5925 5924 5923 5922 5920 5919 5918 5917 5917 5916 5914 5914 5913 5912 5911 5911 5910 5909 5909 5909 5908 5908 5908 5909 5909 5909 5910 5910 5910 5910 5911 5911 5911 5911 5912 5912 5912 5913 5913
5924 5925 5926 5926 5927 5927 5928 5928 5927 5926 5925 5924 5923 5922 5921 5920 5919 5918 5917 5916 5915 5914 5912 5911 5911 5910 5909 5909 5908 5908 5908 5907 5907 5907 5908 5908 5909 5909 5909 5909 5910 5910 5910 5911 5911 5911 5912 5912 5912
5923 5925 5926 5926 5926 5926 5929 5929 5928 5926 5925 5924 5923 5922 5921 5920 5919 5918 5917 5916 5915 5914 5912 5911 5910 5909 5909 5908 5907 5907 5906 5906 5906 5906 5906 5906 5907 5908 5908 5908 5909 5909 5909 5910 5910 5911 5911 5911 5912
5922 5924 5925 5925 5925 5926 5927 5928 5927 5926 5925 5924 5923 5922 5921 5920 5919 5918 5917 5916 5915 5914 5912 5911 5910 5909 5908 5907 5906 5905 5905 5905 5904 5904 5904 5905 5905 5906 5906 5907 5907 5908 5908 5909 5909 5910 5910 5910 5911
5921 5922 5923 5923 5924 5925 5925 5926 5926 5925 5925 5924 5923 5922 5921 5920 5919 5918 5917 5916 5915 5913 5912 5911 5909 5908 5907 5906 5905 5904 5904 5903 5903 5902 5902 5902 5903 5903 5904 5904 5905 5906 5906 5907 5908 5908 5908 5909 5909
5918 5920 5921 5921 5922 5923 5924 5925 5925 5924 5924 5923 5923 5922 5921 5920 5918 5917 5916 5915 5914 5913 5912 5910 5909 5908 5907 5905 5904 5903 5903 5902 5901 5900 5900 5900 5901 5901 5901 5902 5903 5903 5904 5905 5906 5906 5906 5907 5907
5914 5917 5918 5919 5920 5921 5922 5923 5923 5923 5923 5922 5922 5921 5920 5919 5918 5916 5915 5914 5913 5912 5911 5909 5907 5906 5905 5904 5903 5902 5901 5900 5899 5898 5897 5897 5897 5898 5899 5899 5900 5901 5901 5902 5903 5904 5905 5905 5905
5911 5914 5915 5916 5918 5919 5921 5922 5922 5922 5921 5921 5920 5920 5919 5918 5917 5916 5914 5913 5912 5911 5909 5907 5906 5904 5903 5902 5901 5900 5899 5898 5897 5896 5895 5894 5894 5895 5896 5897 5897 5898 5898 5899 5900 5901 5902 5903 5903
5908 5910 5912 5914 5916 5917 5920 5922 5921 5920 5920 5919 5919 5918 5917 5917 5916 5914 5913 5911 5910 5909 5907 5906 5904 5903 5901 5900 5899 5897 5897 5896 5894 5893 5893 5892 5891 5891 5893 5893 5894 5895 5896 5897 5897 5898 5899 5900 5900
5904 5907 5909 5911 5913 5915 5916 5919 5920 5918 5918 5917 5917 5916 5915 5915 5914 5913 5911 5910 5909 5908 5906 5904 5903 5901 5900 5898 5897 5896 5894 5893 5892 5891 5890 5889 5889 5889 5889 5890 5891 5892 5893 5893 5894 5895 5896 5896 5897
5900 5904 5905 5907 5910 5912 5914 5915 5917 5916 5915 5915 5914 5914 5913 5913 5912 5911 5909 5908 5907 5906 5904 5902 5901 5900 5898 5896 5895 5894 5892 5891 5890 5889 5888 5887 5886 5886 5886 5887 5887 5888 5889 5890 5890 5891 5892 5892 5893
5897 5901 5903 5905 5907 5909 5910 5911 5913 5912 5912 5912 5912 5911 5911 5910 5909 5908 5907 5906 5905 5903 5902 5900 5898 5897 5896 5894 5892 5891 5890 5889 5887 5886 5885 5884 5884 5883 5883 5883 5884 5885 5886 5886 5887 5887 5888 5888 5889
5893 5897 5901 5904 5906 5907 5905 5907 5909 5908 5908 5908 5908 5908 5907 5907 5907 5906 5905 5903 5902 5901 5899 5898 5896 5895 5894 5892 5890 5889 5887 5886 5885 5883 5882 5881 5881 5881 5881 5881 5881 5881 5881 5882 5883 5883 5883 5884 5884
5887 5891 5896 5899 5900 5903 5903 5903 5904 5904 5905 5905 5905 5905 5904 5904 5903 5903 5902 5901 5900 5898 5897 5895 5894 5893 5891 5890 5888 5887 5885 5884 5882 5880 5879 5878 5878 5878 5878 5878 5878 5877 5877 5877 5878 5879 5879 5879 5880
5883 5886 5890 5893 5895 5898 5900 5899 5901 5900 5901 5901 5901 5901 5901 5900 5900 5900 5899 5898 5897 5896 5894 5893 5892 5890 5889 5887 5886 5884 5882 5880 5879 5878 5876 5876 5876 5876 5875 5875 5874 5874 5874 5874 5874 5874 5874 5874 5875
5878 5881 5884 5889 5891 5894 5897 5899 5896 5896 5897 5897 5897 5897 5898 5898 5897 5897 5896 5895 5894 5893 5891 5890 5888 5887 5886 5884 5883 5881 5879 5878 5876 5875 5874 5873 5873 5873 5872 5872 5871 5871 5870 5870 5870 5869 5869 5869 5869
5872 5876 5880 5884 5886 5889 5893 5896 5891 5892 5893 5893 5894 5894 5894 5894 5894 5893 5893 5892 5891 5890 5888 5887 5885 5884 5883 5881 5879 5878 5876 5875 5874 5872 5871 5871 5870 5870 5869 5869 5868 5867 5867 5866 5865 5865 5864 5864 5864